Weather in Priboy

Russia / Samara Oblast     52°52′08″N   49°39′12″E
temp.,
°C
wind,
m/s
gust,
m/s
humid.,
%
clouds,
%
prec.,
mm/h
press.,
hPa
HPBL,
m
28 february, sun
sun2801:00−12nnw71095100 0.5 1001338
04:00−14nnw71294100 1.0 1003430
07:00−17nw71294100 0.1 1005381
10:00−17nw71294100 0.1 1007402
13:00−14nw71092100 0.0 1008480
16:00−13nw61092100 0.1 1010539
19:00−15nnw41094100 0.1 1012318
22:00−16nw489696 0.1 1014211
1 march, mon
mon101:00−15nw489598 0.1 1016278
04:00−18nw489794 0.1 1018154
07:00−20nw469966 0.0 1020104
10:00−19nw479659 0.0 1022227
13:00−16nw469365 0.0 1022301
16:00−14wnw469375 0.0 1023371
19:00−17w339672 0.0 102320
22:00−17sw349741 0.0 102345
2 march, tue
tue201:00−16sw479739 0.0 1021108
04:00−14sw6109468 0.0 1018214
07:00−12sw71294100 0.0 1015336
10:00−8sw81494100 0.8 1012525
13:00−4sw91495100 1.3 1008650
16:00−1wsw91496100 2.7 1006738
19:000wsw71397100 0.5 1004590
22:000w5997100 0.9 1004466
3 march, wed
wed301:00−3w479593 0.1 1003151
04:00−7wnw349480 0.1 100469
07:00−9wnw3496100 0.0 100447
10:00−6wnw3596100 0.1 1006181
13:00−4nw469687 0.1 1006301
16:00−3nw579190 0.1 1007630
19:00−4nnw389696 0.2 1008296
22:00−9nw349372 0.2 101057
4 march, thu
thu401:00−11wnw44940 0.0 101161
04:00−12wnw47960 0.0 1012107
07:00−12wsw47950 0.0 1012102
10:00−9wsw610900 0.0 1012252
13:00−6sw8139135 0.0 1010495
16:00−3sw9159168 0.1 1007874
19:00−1wsw101689100 0.1 10051001
22:000wsw91687100 0.1 10041079